THORAD AGENA D DEB, 4738

Orbit data source: Space-Track

THORAD AGENA D DEB, 4738 is space debris in SSO originally from a launch on Wed, 08 Apr 1970 UTC launched from the Air Force Western Test Range (AFWTR). Debris objects in space refer to the collection of defunct objects orbiting the Earth. Examples of debris include non-operational satellites, rocket bodies, and fragments generated from explosions, collisions, or faulty payload assembly.

Loading next visibility...
Identifier
4738, 1970-025CM
Orbit
SSO
Country
Flag of USUS
Related business
Manufacturer
Unknown
Mission
Spacecraft
Bus & Motor
Unknown
Mass
Unknown
Launch date (UTC)
1970-04-08 (56 years ago)
Launch vehicle
Unknown
Launch site
Air Force Western Test Range (AFWTR)
Object type
Payload
Rocket body
Debris
Shape & HBR
Unknown shape, 0.1 m
Radar Cross Section
Small (<0.1 m²)

Expand to show TLE details & history
Last TLE update: 17 hours ago

TLE from 17 hours ago
0 THORAD AGENA D DEB
1 04738U 70025CM  25300.89515172  .00003399  00000-0  17428-2 0  9992
2 04738 100.0930 269.0440 0045118 190.1583 169.8679 14.15703941807453
Epoch: 2025-10-27T21:29Z
TLE epoch observation values (Epoch: 2025-10-27T21:29:01.108Z)
Latitude
-0.00001°
Longitude
-89.70105°
Altitude
874.849 km
Speed
7.398 km/s
True Right ascension
17h 56m 10s
True Declination
0° 00' 00"
Sunlit
Object was in daylight at epoch
Visualization orbit readout
Latitude
Unknown
Longitude
Unknown
Altitude
Unknown
Speed
Unknown
Apparent Right ascension
Unknown
Apparent Declination
Unknown
Sunlit
N/A
Visualization observer readout
Local Sidereal Time
09:57:44
Azimuth
Unknown
Elevation
Unknown
Doppler factor
Unknown
Orbital elements
Apogee altitude
869.708 km
Perigee altitude
804.6 km
Semi-major axis
7,215.291 km
Eccentricity
0.00451
Inclination
100.093°
RAAN
269.044°
Arg. of periapsis
190.1583°
True anomaly
169.95835°
Mean anomaly
169.8679°
Eccentric anomaly
169.91318°
Mean motion
3.5413 °/min
Orbital period
101.66 mins
BSTAR
0.0017428
Loading maneuver chart data...
Computing Atmospheric mass density...

Documentation

Showing up to 5 results
|